Location: Bartshausen
(51.8454°N, 9.8167°E)
Time: 09:00:31
(UTC+00:00)

COSMOS 2455 - Pass Details

Date: 08 November 2025
Orbit: 898 x 910 km, 67.1° (Epoch: 12 December)

Event Time Altitude Azimuth Distance (km) Brightness Sun altitude
Exits shadow 05:28:14 12° 292° (WNW) 2,492 4.5 -9.4°
Maximum altitude 05:32:32 23° 341° (NNW) 1,846 4.2 -8.8°
Drops below altitude 10° 05:37:15 10° 32° (NNE) 2,608 5.5 -8.1°
Sets 05:40:21 0° 47° (NE) 3,551 6.4 -7.6°
